OBJECT G, 43837

Orbit data source: Space-Track

You're viewing an Uncataloged Satellite

Recently launched and/or uncataloged satellites may have evolving metadata. Metadata may include but not limited to: Owner, Maufacturer, Bus, Motor, and Mission.

OBJECT G, 43837 is a satellite in LEO that was launched on Fri, 07 Dec 2018 UTC via a CHANG ZHENG 2D launch vehicle from the Jiuquan Satellite Launch Center, China (JSC). Unknown objects in Earth's orbit typically refer to objects detected orbiting the Earth but have not yet been identified or cataloged. These objects could be anything from previously untracked satellites, spent rocket stages, debris from satellite collisions, or even natural meteoroids temporarily captured by Earth's gravity.

Not visible in the next 10 days
OBJECT G details
Identifier
43837, 2018-102G
Orbit
LEO
Last TLE update23 hours ago
Origin
Flag of TBDBTWK/MAOW (TBD)
ManufacturerJiutian
MissionCommercial Communications
Bus & MotorCUBESAT 6U, Unknown motor
Mass10 kg wet, 10 kg dry
Launch date (UTC)
2018-12-07 (6 years ago)
Launch vehicle
CHANG ZHENG 2D
Launch site
Jiuquan Satellite Launch Center, China (JSC)
Object typeUnknown
Shape & HBRBox, 0.3 m
Radar Cross Section0.035 m², Medium (>0.1 m² and < 1m²)

Expand to show TLE details & history

TLE from 23 hours ago
0 OBJECT G
1 43837U 18102G   24360.49917394  .11506644  25356-5  85081-3 0  9996
2 43837  97.4050  89.8655 0010905 280.8818  79.1254 16.40175813335222
Epoch: 2024-12-25T11:58Z
Definitive object data (Epoch: 2024-12-25T11:58:48.628Z)
Latitude-0.00003°
Longitude175.67084°
Altitude167.247 km
Speed7.807 km/s
True Right ascension05h 59m 27s
True Declination0° 00' 00"
Sunlit
Object was in full shadow at TLE epoch
Visualization TLE readout
Latitude-64.22129°
Longitude-18.71622°
Altitude122.205 km
Speed7.837 km/s
Apparent Right ascension20h 22m 56s
Apparent Declination-57° 56' 55"
Sunlit
Object is in daylight
Visualization observer readout
Local Sidereal Time10:08:36
Azimuth145.623° SSE
Elevation-65.282°
Doppler factor1
Orbital elements
Apogee altitude169.275 km
Perigee altitude155.01 km
Semi-major axis6,540.279 km
Eccentricity0.0010905
Inclination97.405°
RAAN89.8655°
Arg. of periapsis280.8818°
True anomaly79.24815°
Mean anomaly79.1254°
Eccentric anomaly79.18677°
Mean motion4.10345 °/min
BSTAR0.00085081
Orbital period87.73 mins
Loading maneuver chart data...
Loading historical data...
Loading historical data...
Loading historical data...
Loading historical data...
Loading historical data...
Loading historical data...
Loading historical data...

OBJECT G Visibility forecast

Observer location: undefined°, undefined

OBJECT G is not visible in the next 10 days
Span
Click to sort rows by Start time (UTC) header in descending order
Start Az.
Max El. time (UTC)
Max El. Az.
Max El.
End time (UTC)
End Az.
|